Fredericksburg, VA

7:05 PM EST on December 09, 2019 (GMT -0500)
Shannon

Weather History for KEZF - October, 2019

Change the Weather History Date:

Monday, October 28, 2019

  Actual Average (KNYG) Record (KNYG)
Temperature  
Mean Temperature 59 °F -  
Max Temperature 70 °F 61 °F 78 °F (2010)
Min Temperature 48 °F 42 °F 35 °F (1997)
Degree Days  
Heating Degree Days 6    
Growing Degree Days 9 (Base 50)    
Moisture  
Dew Point 52 °F    
Average Humidity 81    
Maximum Humidity 100    
Minimum Humidity 55    
Precipitation  
Precipitation 0.00 in - - ()
Sea Level Pressure  
Sea Level Pressure 30.13 in    
Wind  
Wind Speed 3 mph ()    
Max Wind Speed 12 mph    
Max Gust Speed 16 mph    
Visibility 10.0 miles    
Events      
Averages and records for this station are not official NWS values.
T = Trace of Precipitation, MM = Missing Value Source: Averaged Metar Reports

Daily Weather History Graph

Daily Weather History Graph

Search for Another Location

Airport or City:

Astronomy

Oct. 28, 2019 Rise Set
Actual Time 7:31 AM EDT 6:15 PM EDT
Civil Twilight 7:04 AM EDT 6:42 PM EDT
Nautical Twilight 6:33 AM EDT 7:13 PM EDT
Astronomical Twilight 6:02 AM EDT 7:43 PM EDT
Moon 7:50 AM EDT (10/28) 6:59 PM EDT (10/28)
Length of Visible Light 11h 37m
Length of Day
10h 43m
New Moon, 0% of the Moon is Illuminated
Oct 28
New Moon
Nov 4
First Quarter
Nov 12
Full
Nov 19
Last Quarter
Nov 26
New

Hourly Weather History & Observations

Time (EDT) Temp. Dew Point Humidity Pressure Visibility Wind Dir Wind Speed Gust Speed Precip Events Conditions
12:15 AM 56.5 °F 52.9 °F 88% 30.01 in 10.0 mi Calm Calm - N/A   Clear
12:35 AM 59.0 °F 52.5 °F 79% 30.01 in 10.0 mi Calm Calm - N/A   Clear
12:55 AM 61.3 °F 52.3 °F 72% 30.01 in 10.0 mi NNW 6.9 mph - N/A   Clear
1:15 AM 61.0 °F 51.8 °F 72% 30.01 in 10.0 mi North 5.8 mph - N/A   Clear
1:35 AM 61.0 °F 52.0 °F 72% 30.01 in 10.0 mi NNW 6.9 mph - N/A   Clear
1:55 AM 61.0 °F 51.8 °F 72% 30.01 in 10.0 mi NNW 8.1 mph - N/A   Clear
2:15 AM 60.4 °F 51.8 °F 73% 30.02 in 10.0 mi North 5.8 mph - N/A   Clear
2:35 AM 60.1 °F 51.8 °F 74% 30.03 in 10.0 mi North 4.6 mph - N/A   Clear
2:55 AM 59.5 °F 52.2 °F 77% 30.02 in 10.0 mi North 3.5 mph - N/A   Clear
3:15 AM 58.6 °F 52.0 °F 79% 30.03 in 10.0 mi NNW 3.5 mph - N/A   Clear
3:35 AM 58.1 °F 52.0 °F 80% 30.03 in 10.0 mi North 5.8 mph - N/A   Clear
3:55 AM 57.7 °F 52.2 °F 82% 30.04 in 10.0 mi North 3.5 mph - N/A   Clear
4:15 AM 57.2 °F 52.0 °F 83% 30.04 in 10.0 mi North 3.5 mph - N/A   Clear
4:35 AM 53.4 °F 51.3 °F 92% 30.05 in 10.0 mi Calm Calm - N/A   Clear
4:55 AM 52.9 °F 51.8 °F 96% 30.05 in 10.0 mi Calm Calm - N/A   Clear
5:15 AM 51.6 °F 51.3 °F 99% 30.06 in 10.0 mi Calm Calm - N/A   Clear
5:35 AM 50.2 °F 50.2 °F 100% 30.06 in 10.0 mi Calm Calm - N/A   Clear
5:55 AM 50.7 °F 50.7 °F 100% 30.09 in 10.0 mi Calm Calm - N/A   Clear
6:15 AM 50.2 °F 50.2 °F 100% 30.10 in 10.0 mi Calm Calm - N/A   Clear
6:35 AM 50.0 °F 50.0 °F 100% 30.11 in 10.0 mi Calm Calm - N/A   Clear
6:55 AM 49.6 °F 49.6 °F 100% 30.12 in 10.0 mi Calm Calm - N/A   Clear
7:15 AM 49.3 °F 49.3 °F 100% 30.12 in 10.0 mi Calm Calm - N/A   Clear
7:35 AM 48.9 °F 48.9 °F 100% 30.13 in 10.0 mi Calm Calm - N/A   Clear
7:55 AM 48.6 °F 48.6 °F 100% 30.14 in 10.0 mi Calm Calm - N/A   Clear
8:15 AM 50.0 °F 50.0 °F 100% 30.15 in 10.0 mi Calm Calm - N/A   Clear
8:35 AM 51.6 °F 51.6 °F 100% 30.17 in 10.0 mi Calm Calm - N/A   Clear
8:55 AM 54.7 °F 52.9 °F 94% 30.17 in 10.0 mi Calm Calm - N/A   Clear
9:15 AM 57.7 °F 53.2 °F 85% 30.18 in 10.0 mi NE 3.5 mph - N/A   Clear
9:35 AM 59.9 °F 52.7 °F 77% 30.19 in 10.0 mi NNE 5.8 mph - N/A   Clear
9:55 AM 61.2 °F 52.7 °F 74% 30.19 in 10.0 mi NE 9.2 mph - N/A   Clear
10:15 AM 62.1 °F 51.4 °F 68% 30.19 in 10.0 mi NE 11.5 mph 16.1 mph N/A   Clear
10:35 AM 62.4 °F 51.8 °F 68% 30.19 in 10.0 mi NE 6.9 mph 16.1 mph N/A   Clear
10:55 AM 63.0 °F 51.1 °F 65% 30.19 in 10.0 mi ENE 9.2 mph - N/A   Clear
11:15 AM 63.5 °F 52.7 °F 68% 30.20 in 10.0 mi NE 5.8 mph - N/A   Clear
11:35 AM 64.8 °F 52.7 °F 65% 30.20 in 10.0 mi East 3.5 mph - N/A   Clear
11:55 AM 64.4 °F 52.3 °F 65% 30.20 in 10.0 mi East 5.8 mph - N/A   Clear
1:35 PM 67.1 °F 52.2 °F 59% 30.17 in 10.0 mi ENE 3.5 mph - N/A   Clear
1:55 PM 67.5 °F 52.5 °F 59% 30.17 in 10.0 mi ENE 4.6 mph - N/A   Clear
2:15 PM 68.9 °F 52.0 °F 55% 30.16 in 10.0 mi NE 5.8 mph - N/A   Clear
2:35 PM 68.9 °F 52.7 °F 56% 30.15 in 10.0 mi Calm Calm - N/A   Clear
2:55 PM 69.6 °F 52.9 °F 55% 30.15 in 10.0 mi ENE 6.9 mph - N/A   Clear
3:15 PM 69.3 °F 53.4 °F 57% 30.14 in 10.0 mi North 4.6 mph - N/A   Clear
3:55 PM 70.3 °F 53.8 °F 56% 30.15 in 10.0 mi SSE 4.6 mph - N/A   Clear
4:15 PM 69.8 °F 52.9 °F 55% 30.15 in 10.0 mi SSE 4.6 mph - N/A   Clear
4:35 PM 69.3 °F 52.7 °F 56% 30.15 in 10.0 mi SE 4.6 mph - N/A   Clear
4:55 PM 69.3 °F 54.0 °F 58% 30.15 in 10.0 mi East 6.9 mph - N/A   Clear
5:15 PM 68.4 °F 54.5 °F 61% 30.15 in 10.0 mi ESE 5.8 mph - N/A   Clear
5:35 PM 67.5 °F 54.5 °F 63% 30.15 in 10.0 mi ESE 3.5 mph - N/A   Clear
5:55 PM 66.4 °F 54.5 °F 66% 30.15 in 10.0 mi East 4.6 mph - N/A   Clear
6:15 PM 65.3 °F 54.5 °F 68% 30.16 in 10.0 mi Calm Calm - N/A   Clear
6:35 PM 62.6 °F 55.4 °F 77% 30.17 in 10.0 mi Calm Calm - N/A   Clear
6:55 PM 59.4 °F 55.4 °F 87% 30.17 in 10.0 mi Calm Calm - N/A   Clear
7:15 PM 58.5 °F 55.4 °F 90% 30.18 in 10.0 mi Calm Calm - N/A   Clear
7:35 PM 57.4 °F 55.4 °F 93% 30.18 in 10.0 mi Calm Calm - N/A   Clear
7:55 PM 56.3 °F 54.1 °F 92% 30.18 in 10.0 mi Calm Calm - N/A   Clear
8:15 PM 55.8 °F 54.5 °F 96% 30.18 in 10.0 mi Calm Calm - N/A   Clear
8:35 PM 54.5 °F 54.5 °F 100% 30.19 in 10.0 mi Calm Calm - N/A   Clear
8:55 PM 54.5 °F 54.5 °F 100% 30.19 in 10.0 mi Calm Calm - N/A   Clear
9:15 PM 54.0 °F 54.0 °F 100% 30.20 in 10.0 mi Calm Calm - N/A   Clear
9:35 PM 53.2 °F 53.2 °F 100% 30.20 in 10.0 mi Calm Calm - N/A   Clear
9:55 PM 52.7 °F 52.7 °F 100% 30.21 in 10.0 mi Calm Calm - N/A   Clear
10:15 PM 52.0 °F 52.0 °F 100% 30.21 in 10.0 mi Calm Calm - N/A   Clear
10:35 PM 52.0 °F 52.0 °F 100% 30.22 in 10.0 mi Calm Calm - N/A   Clear
10:55 PM 51.3 °F 51.3 °F 100% 30.22 in 10.0 mi Calm Calm - N/A   Clear
11:15 PM 50.9 °F 50.9 °F 100% 30.22 in 10.0 mi Calm Calm - N/A   Clear
11:55 PM 50.2 °F 50.2 °F 100% 30.22 in 10.0 mi Calm Calm - N/A   Clear